Wind_Speed
7 7 7 7 7 7 6 6 7 7 8 9 10 11 12 13 14 15 15 15 15 15 15 15 15 15 15 15 15 14 13 12 12 12 10 10 9 8 7 6 5 5 4
8 8 8 8 9 9 8 9 9 10 11 11 12 13 14 14 15 16 16 15 15 15 15 15 15 15 15 14 14 13 12 11 11 10 9 9 8 8 7 6 5 4 3
9 9 10 10 10 10 11 11 12 13 14 14 15 15 16 16 16 16 16 16 16 16 15 15 15 14 14 13 13 12 11 10 10 9 8 8 7 7 6 6 5 4 3
11 11 11 11 12 13 13 14 15 16 17 16 16 17 18 18 17 17 17 17 16 16 16 15 15 14 13 13 12 11 10 9 9 8 7 7 6 6 6 5 4 3 2
13 14 14 14 14 15 16 16 17 18 19 19 19 19 19 19 19 20 19 18 18 17 16 16 15 14 13 12 11 10 9 9 9 8 7 7 6 6 5 4 4 3 2
15 16 16 16 17 17 18 18 19 19 20 21 21 22 22 21 21 21 21 20 19 18 17 17 16 15 13 12 11 10 9 8 8 8 7 7 6 6 5 5 4 3 3
18 19 19 20 20 21 21 22 22 22 22 22 23 23 23 23 23 22 23 22 21 20 19 18 17 16 15 13 12 10 9 9 8 8 7 7 6 6 5 5 4 4 4
22 22 22 23 23 24 25 25 26 25 25 25 25 25 25 26 25 25 24 23 23 23 21 20 19 18 16 14 13 11 10 9 9 8 7 7 6 5 5 5 4 4 4
23 24 25 25 26 27 27 27 28 28 28 28 28 27 27 28 29 28 27 26 26 25 24 23 21 19 18 17 15 13 11 10 10 9 8 7 6 5 5 4 4 5 5
25 26 26 27 27 28 28 29 30 30 30 30 30 30 30 29 30 30 29 28 27 27 26 25 24 22 21 19 17 15 13 12 11 10 9 7 6 6 5 4 5 5 6
25 26 27 27 28 28 28 29 30 31 32 32 32 32 32 31 30 31 30 30 29 27 27 27 26 24 23 21 19 17 15 13 12 11 10 9 7 6 6 5 5 5 6
24 25 25 26 26 26 27 28 29 30 31 33 34 34 34 33 32 31 31 31 31 29 28 27 26 26 25 24 22 20 18 16 14 13 12 10 9 8 7 6 6 6 6
22 22 22 22 22 23 23 24 26 27 29 30 32 33 33 34 34 33 32 32 31 30 29 29 28 28 27 26 24 23 21 19 17 16 15 13 11 10 8 7 7 7 6
20 20 20 20 21 21 21 21 22 24 25 27 29 30 31 32 33 34 33 33 32 32 31 30 29 29 28 27 26 24 23 21 20 19 17 15 13 12 10 9 8 8 8
19 19 20 20 20 21 21 21 21 21 22 23 26 28 29 31 33 34 34 33 33 33 32 31 31 30 30 29 27 26 25 23 21 20 19 17 15 14 12 11 10 9 9
19 19 19 19 20 20 20 20 20 21 21 21 22 24 26 28 30 32 33 34 33 33 33 32 32 31 31 31 29 28 27 25 23 22 21 20 18 16 15 13 12 11 10
18 18 18 19 19 19 19 19 20 20 21 21 21 22 23 25 27 30 32 33 33 33 33 33 32 32 31 31 31 28 28 28 27 25 23 22 21 19 17 15 14 13 12
18 19 19 19 19 19 19 19 19 19 20 20 20 21 22 23 24 26 29 32 33 34 34 33 33 32 32 31 32 30 28 27 28 27 26 25 23 22 20 18 16 15 14
18 19 19 20 20 20 19 19 18 18 18 18 19 20 21 21 22 24 26 28 31 33 34 33 33 33 32 32 32 31 30 28 27 28 28 27 26 24 22 21 19 18 16
19 19 20 20 21 21 20 19 18 17 17 17 17 18 19 19 20 22 24 26 28 30 32 33 33 33 33 33 33 32 32 31 28 28 28 28 28 26 25 23 22 20 19
19 20 21 21 21 21 21 20 19 18 17 16 16 16 17 17 18 20 22 24 26 28 30 31 32 33 33 32 32 32 32 32 31 29 30 29 29 28 27 26 25 23 22
20 21 22 22 22 21 20 20 19 18 17 16 16 15 15 15 16 17 19 21 23 25 27 29 30 32 32 32 32 32 32 32 32 31 31 31 32 31 29 28 28 26 25
20 21 22 22 22 21 21 20 20 19 18 17 17 16 15 14 14 15 16 18 20 22 24 27 28 30 30 31 32 31 32 32 32 33 32 31 32 32 32 30 30 29 28
20 21 22 23 23 22 22 21 21 20 19 18 17 17 15 14 12 13 14 15 18 20 22 24 26 27 28 29 31 32 32 32 32 33 33 32 32 33 33 33 31 30 30
20 21 22 23 23 23 22 22 21 20 20 19 18 17 16 14 12 12 12 13 14 17 19 22 24 26 28 29 30 31 31 32 32 33 33 34 33 33 32 33 33 33 32
20 21 23 23 24 24 23 23 22 21 21 20 19 18 16 15 13 11 11 12 12 14 16 19 21 23 25 28 29 30 31 31 32 32 33 34 33 33 33 33 33 34 34
Wind_Direction
321 317 311 306 308 304 295 290 282 271 264 262 264 263 262 264 264 265 268 270 270 270 274 278 280 283 281 280 280 282 285 287 288 290 291 294 298 301 303 299 292 296 312
311 314 311 305 300 296 286 279 274 271 266 264 264 263 265 266 266 265 267 270 270 271 274 277 280 282 283 282 281 283 286 287 287 287 288 291 295 299 298 296 288 291 299
306 306 304 300 294 288 281 275 272 271 266 264 262 262 264 265 265 264 265 268 269 269 272 275 278 280 280 281 282 283 285 287 285 285 285 288 293 298 296 291 282 282 277
303 299 296 291 287 283 279 275 272 271 268 263 261 262 263 264 264 264 266 266 267 268 270 273 276 277 277 278 281 283 282 282 282 282 282 285 292 295 296 284 273 271 256
299 295 290 285 282 280 277 275 274 273 269 264 261 263 263 262 262 263 265 265 265 267 269 271 272 273 273 274 277 281 280 278 278 278 280 282 287 289 289 279 267 257 237
293 290 286 283 280 277 276 274 272 272 270 266 263 262 262 260 261 262 263 263 263 264 266 268 269 268 268 269 273 276 276 274 274 275 277 280 283 284 281 277 267 246 227
287 285 283 281 280 275 274 272 270 269 268 266 264 263 262 260 259 261 261 262 261 262 262 263 263 264 263 265 268 271 271 269 268 271 274 275 275 277 271 269 261 240 219
287 284 281 280 278 276 274 271 269 269 266 264 263 261 260 259 258 259 261 260 260 261 260 259 258 259 260 261 263 265 266 264 263 265 268 269 270 269 266 261 255 238 218
289 285 282 280 279 277 275 272 268 266 265 264 262 260 260 259 257 258 259 259 258 258 259 256 256 255 256 257 258 259 260 259 259 259 260 263 264 268 264 260 250 237 225
290 288 285 282 280 278 275 272 269 267 265 263 262 260 260 260 257 255 257 258 257 257 255 254 254 254 254 253 254 254 255 255 254 255 255 256 257 261 260 254 244 238 227
295 294 291 287 283 279 276 273 270 267 265 262 260 259 259 258 257 255 256 257 256 257 255 252 252 252 250 250 250 250 251 250 249 251 253 252 252 253 252 247 241 237 228
300 298 295 291 287 284 280 276 272 269 266 263 261 259 257 257 257 256 255 256 254 254 254 251 249 248 247 247 247 248 247 246 246 247 248 247 246 246 244 243 238 234 227
308 305 303 300 295 290 286 282 278 274 269 266 263 261 259 256 255 255 254 254 254 252 250 250 248 247 247 246 247 246 245 243 244 245 245 244 242 241 239 239 235 232 227
317 314 311 308 304 300 295 289 285 280 274 269 265 262 259 256 255 253 253 252 252 251 249 248 248 245 245 244 245 244 242 241 240 240 241 239 238 238 237 236 233 230 226
322 319 316 313 309 306 301 296 291 286 280 274 269 265 261 257 254 253 252 251 250 249 247 246 246 245 245 243 244 242 241 239 236 235 235 235 236 235 234 232 229 228 225
327 324 322 318 314 311 306 301 296 291 286 281 274 269 264 259 255 251 250 249 249 247 246 245 245 245 245 242 242 241 238 237 235 234 233 234 235 233 231 230 228 225 224
338 335 332 327 322 318 312 306 299 294 290 286 280 274 268 262 257 252 249 248 246 245 244 243 245 243 243 242 241 240 237 238 236 233 231 232 233 230 229 227 226 224 224
344 342 339 335 331 325 320 314 308 302 296 291 285 278 273 267 260 255 250 247 245 244 243 242 243 242 241 240 239 237 237 236 235 234 232 231 230 228 228 227 226 224 224
349 347 344 342 339 336 331 325 318 313 306 298 290 282 276 270 264 258 253 249 246 244 243 241 241 240 238 238 238 237 236 233 233 234 231 230 230 228 227 227 226 225 224
354 351 348 345 344 343 340 335 329 324 317 308 300 290 282 275 268 260 255 251 248 245 243 240 239 239 238 238 237 237 236 234 234 232 230 230 229 227 227 226 226 225 224
359 356 353 350 347 346 345 343 339 335 330 322 312 302 292 283 273 264 258 253 249 246 242 240 239 238 237 237 237 236 234 233 231 230 231 229 228 227 226 226 226 226 225
2 0 358 355 353 351 350 349 346 343 340 334 326 315 303 292 281 270 261 255 251 247 242 239 237 238 238 237 238 236 234 233 231 229 231 230 229 227 226 226 225 227 227
3 3 2 360 358 356 354 352 349 347 344 340 335 329 318 303 289 277 267 258 253 249 244 239 237 236 236 235 235 235 234 232 230 229 230 230 229 228 228 227 226 226 226
4 4 2 1 1 360 358 356 354 352 348 344 340 335 329 318 300 284 272 264 255 250 245 241 239 236 236 235 234 233 233 232 230 230 230 228 228 228 226 225 226 227 227
6 5 4 3 3 2 1 0 359 356 353 349 345 342 337 328 315 297 280 270 260 252 246 241 239 237 236 234 233 232 232 232 231 230 230 228 228 228 226 226 227 228 227
7 5 5 5 5 4 3 2 1 359 357 355 352 349 346 339 328 314 295 277 266 255 247 242 239 238 235 234 233 233 233 232 231 230 229 229 228 228 227 228 228 227 228
Height
5894 5893 5893 5892 5892 5892 5891 5891 5891 5891 5891 5891 5891 5891 5891 5891 5891 5892 5892 5892 5891 5891 5891 5891 5890 5890 5889 5889 5888 5888 5887 5886 5885 5885 5884 5883 5882 5882 5881 5880 5880 5879 5879
5893 5892 5891 5891 5890 5890 5890 5890 5890 5889 5890 5889 5889 5889 5889 5889 5889 5889 5889 5890 5889 5890 5889 5889 5889 5888 5888 5887 5887 5886 5886 5885 5884 5883 5883 5882 5881 5881 5880 5879 5879 5879 5878
5891 5890 5890 5889 5889 5888 5888 5888 5888 5887 5887 5887 5887 5887 5887 5887 5887 5887 5887 5887 5887 5887 5887 5887 5887 5886 5886 5885 5885 5885 5884 5883 5883 5882 5882 5881 5880 5880 5879 5879 5878 5878 5878
5889 5888 5888 5887 5887 5886 5886 5885 5885 5885 5885 5884 5884 5884 5884 5884 5884 5885 5885 5885 5885 5885 5885 5885 5885 5884 5884 5884 5883 5883 5883 5882 5881 5881 5880 5880 5880 5879 5878 5878 5878 5877 5877
5887 5886 5885 5884 5884 5883 5883 5882 5882 5882 5881 5881 5881 5881 5881 5881 5881 5881 5882 5882 5882 5882 5882 5882 5882 5882 5882 5882 5882 5882 5881 5881 5880 5880 5879 5879 5879 5878 5878 5877 5877 5877 5877
5884 5883 5882 5881 5880 5880 5879 5879 5878 5878 5877 5877 5877 5877 5877 5877 5877 5878 5878 5878 5879 5879 5879 5880 5880 5880 5880 5880 5880 5880 5880 5880 5879 5879 5879 5878 5878 5878 5877 5877 5877 5877 5877
5881 5880 5878 5877 5876 5875 5875 5874 5874 5873 5873 5873 5873 5873 5873 5873 5873 5874 5874 5874 5875 5876 5876 5876 5877 5877 5878 5878 5878 5878 5879 5878 5878 5878 5878 5877 5877 5877 5876 5876 5876 5876 5876
5877 5875 5873 5872 5871 5870 5869 5869 5868 5868 5867 5867 5867 5867 5868 5868 5868 5869 5870 5870 5871 5872 5872 5873 5873 5874 5875 5875 5876 5876 5877 5877 5877 5877 5877 5877 5876 5876 5876 5876 5876 5876 5876
5872 5870 5868 5866 5865 5864 5864 5863 5862 5862 5862 5861 5862 5862 5862 5862 5863 5864 5864 5865 5866 5867 5868 5869 5869 5870 5872 5873 5873 5874 5875 5875 5875 5875 5875 5875 5875 5875 5875 5875 5875 5875 5875
5866 5864 5862 5861 5859 5858 5857 5856 5855 5855 5855 5855 5855 5855 5855 5856 5856 5858 5859 5859 5860 5861 5862 5864 5865 5866 5867 5869 5870 5871 5872 5873 5873 5874 5874 5874 5874 5874 5874 5874 5874 5875 5875
5860 5858 5856 5854 5852 5851 5850 5849 5848 5847 5847 5847 5847 5848 5848 5849 5850 5851 5852 5853 5854 5855 5857 5858 5860 5861 5863 5865 5866 5868 5869 5870 5871 5872 5872 5873 5873 5873 5873 5874 5874 5874 5874
5855 5852 5850 5848 5846 5844 5843 5841 5840 5840 5839 5839 5839 5840 5841 5842 5843 5844 5845 5847 5848 5849 5851 5853 5854 5856 5858 5860 5862 5864 5866 5867 5868 5869 5870 5871 5871 5872 5872 5873 5873 5873 5874
5850 5847 5844 5842 5840 5838 5836 5834 5833 5832 5832 5831 5831 5832 5833 5834 5835 5837 5838 5840 5841 5843 5845 5847 5849 5851 5853 5855 5857 5860 5862 5863 5865 5866 5867 5868 5869 5870 5871 5871 5872 5873 5873
5846 5843 5840 5837 5834 5832 5830 5829 5827 5826 5825 5824 5823 5824 5825 5826 5827 5829 5831 5833 5834 5836 5838 5840 5842 5845 5847 5849 5852 5854 5857 5859 5861 5862 5864 5865 5867 5868 5869 5870 5871 5871 5872
5842 5839 5836 5833 5830 5827 5825 5823 5821 5820 5818 5817 5816 5816 5817 5818 5819 5821 5823 5825 5827 5829 5831 5834 5836 5838 5841 5844 5846 5849 5852 5854 5856 5858 5860 5862 5863 5865 5866 5868 5869 5870 5871
5839 5836 5833 5829 5826 5823 5820 5818 5815 5814 5812 5811 5810 5809 5810 5810 5811 5812 5814 5816 5819 5821 5824 5827 5829 5832 5834 5837 5840 5843 5846 5848 5851 5853 5856 5858 5860 5862 5864 5865 5867 5868 5869
5837 5833 5829 5826 5823 5819 5816 5813 5810 5808 5806 5805 5804 5803 5803 5803 5804 5805 5806 5808 5811 5813 5816 5819 5822 5825 5827 5831 5834 5837 5840 5843 5846 5848 5851 5854 5856 5858 5860 5862 5864 5866 5867
5834 5830 5827 5823 5819 5816 5812 5808 5805 5803 5801 5799 5798 5797 5796 5796 5797 5797 5799 5800 5802 5805 5808 5811 5814 5817 5820 5824 5827 5831 5834 5837 5840 5843 5846 5849 5851 5854 5857 5859 5861 5863 5865
5832 5828 5825 5821 5816 5812 5808 5805 5801 5798 5796 5794 5792 5791 5790 5789 5790 5790 5791 5793 5795 5798 5800 5804 5807 5810 5813 5817 5820 5824 5827 5831 5834 5837 5840 5843 5847 5849 5852 5855 5858 5860 5862
5831 5827 5823 5819 5814 5810 5805 5801 5798 5794 5791 5789 5787 5785 5784 5783 5783 5784 5785 5786 5788 5790 5793 5796 5799 5803 5806 5810 5813 5817 5821 5824 5828 5831 5834 5838 5841 5844 5847 5851 5854 5856 5859
5830 5826 5821 5817 5812 5808 5803 5799 5795 5791 5788 5785 5782 5780 5778 5777 5777 5777 5778 5779 5780 5782 5785 5788 5791 5795 5799 5802 5806 5810 5814 5817 5821 5825 5828 5831 5835 5838 5842 5846 5849 5852 5855
5830 5825 5821 5816 5811 5806 5802 5797 5793 5789 5785 5781 5778 5776 5774 5772 5771 5771 5771 5772 5774 5775 5778 5781 5784 5787 5791 5795 5799 5803 5807 5811 5814 5818 5821 5825 5828 5832 5836 5840 5844 5847 5850
5829 5825 5820 5815 5810 5805 5800 5796 5791 5786 5782 5779 5775 5772 5770 5768 5766 5766 5766 5766 5767 5769 5771 5774 5777 5780 5784 5788 5792 5796 5800 5803 5807 5811 5814 5818 5822 5826 5830 5834 5837 5841 5844
5830 5825 5820 5815 5810 5804 5799 5794 5789 5785 5780 5777 5773 5769 5766 5764 5762 5761 5761 5761 5762 5763 5765 5767 5770 5774 5777 5780 5784 5788 5792 5796 5800 5804 5808 5812 5816 5819 5823 5827 5831 5835 5838
5830 5825 5820 5815 5809 5804 5799 5794 5788 5784 5779 5775 5771 5767 5763 5760 5758 5757 5756 5756 5757 5758 5759 5762 5764 5767 5770 5774 5777 5781 5784 5788 5792 5797 5801 5805 5809 5813 5816 5820 5824 5828 5832
5830 5825 5820 5815 5809 5804 5798 5793 5788 5783 5778 5773 5769 5765 5761 5758 5755 5753 5752 5752 5752 5753 5754 5756 5758 5761 5764 5767 5770 5774 5777 5781 5785 5789 5793 5797 5801 5806 5809 5814 5818 5821 5825